Flag for U.S.A. Weather past 2 weeks in Burbank, California, U.S.A.

Now
79 °F

Scattered clouds.


Feels Like: 80 °F
Forecast: 65 / 82 °F
Wind: 9 mph from Southeast

Location: Burbank-Glendale-Pasadena Airport

Current Time: Sep 19, 2014 at 1:25:52 PM

Latest Report: Sep 19, 2014 at 12:53 PM


Visibility: 10 mi

Pressure: 29.84 "Hg

Humidity: 48%

Dew point: 58 °F

Location of BurbankLocation

Historic Weather in Burbank — Graph

°F

Burbank temperature yesterday

Maximum temperature yesterday: 80 °F (at 11:53 AM)
Minimum temperature yesterday: 68 °F (at 6:53 AM)
Average temperature yesterday: 73 °F

Past Weeks' High & Low Weather Summary

 TemperatureHumidityPressure
High103 °F (Sep 14, 12:53 PM)90% (Sep 5, 3:53 AM)29.90 "Hg (Sep 5, 3:53 AM)
Low62 °F (Sep 5, 5:53 AM)12% (Sep 14, 2:53 PM)29.64 "Hg (Sep 16, 4:53 PM)
Average81 °F43%29.77 "Hg
* Reported Sep 4 11:53 AM — Sep 19 11:53 AM, Burbank, Weather by CustomWeather, © 2014

Note: Actual official high and low records may vary slightly from our data, if they occured in-between our weather recording intervals... More about our weather records

Advertising

Burbank weather history for previous 24 hours

 ConditionsComfort  
Time TempWeatherWind HumidityBarometerVisibility
11:53 AM
Sep 19
76 °FPartly sunny.6 mph56%29.86 "Hg10 mi
10:53 AM74 °FOvercast.9 mph57%29.87 "Hg10 mi
9:53 AM71 °FOvercast.9 mph66%29.88 "Hg10 mi
8:53 AM69 °FOvercast.3 mph70%29.88 "Hg10 mi
7:53 AM68 °FOvercast.3 mph76%29.88 "Hg10 mi
6:53 AM68 °FOvercast.5 mph76%29.86 "Hg10 mi
6:04 AM66 °FOvercast.7 mph83%29.88 "Hg10 mi
5:53 AM67 °FOvercast.6 mph79%29.84 "Hg10 mi
4:53 AM66 °FOvercast.6 mph81%29.84 "Hg10 mi
3:53 AM67 °FOvercast.6 mph79%29.84 "Hg10 mi
2:53 AM66 °FClear.5 mph81%29.83 "Hg10 mi
1:53 AM68 °FClear.8 mph76%29.83 "Hg10 mi
12:53 AM68 °FClear.5 mph76%29.83 "Hg10 mi
11:53 PM
Sep 18
70 °FClear.6 mph73%29.82 "Hg10 mi
10:53 PM70 °FClear.6 mph73%29.81 "Hg10 mi
9:53 PM70 °FClear.No wind73%29.82 "Hg10 mi
8:53 PM71 °FClear.6 mph73%29.81 "Hg10 mi
7:53 PM71 °FSunny.5 mph71%29.80 "Hg10 mi
6:53 PM72 °FSunny.7 mph71%29.78 "Hg10 mi
5:53 PM76 °FSunny.9 mph62%29.77 "Hg10 mi
4:53 PM79 °FSunny.9 mph54%29.76 "Hg10 mi
3:53 PM79 °FSunny.10 mph52%29.77 "Hg10 mi
2:53 PM80 °FSunny.12 mph51%29.78 "Hg10 mi
1:53 PM79 °FSunny.10 mph52%29.80 "Hg10 mi
Weather by CustomWeather, © 2014

See weather overviewHow to use our weather pages